Regional Weather Roundup
Issued by NWS Lake Charles, LA

Current Version | Previous Version | Text Only | Print | Product List | Glossary On
Versions: 1 2 3 4 5 6 7 8 9 10 11 12 13 14 15 16 17 18 19 20 21 22 23 24 25 26 27
000
ASUS44 KLCH 091210
RWRLCH
REGIONAL WEATHER ROUNDUP
NATIONAL WEATHER SERVICE LAKE CHARLES LA
600 AM CST FRI DEC 09 2016

Note: "fair" indicates few or no clouds below 12,000 feet with no
significant weather and/or obstructions to visibility.


ACROSS SOUTHEAST TEXAS

CITY           SKY/WX    TMP DP  RH WIND       PRES   REMARKS
BEAUMONT       CLOUDY    39  29  67 N15G21    30.55R
BEAUMONT CITY  CLOUDY    39  29  67 N10       30.57R
ORANGE         CLOUDY    38  27  62 N10G17    30.57S
JASPER         CLEAR     35  27  74 N5        30.61R
$$

ACROSS CENTRAL LOUISIANA

CITY           SKY/WX    TMP DP  RH WIND       PRES   REMARKS
LEESVILLE      CLEAR     32  22  66 N8        30.57R WCI  25
FULLERTON      FAIR      32  23  69 VRB5      30.55R WCI  27
ALEXANDRIA INT CLEAR     32  24  72 N8        30.58R WCI  25
ESLER FIELD    CLEAR     31  24  75 VRB5      30.59R WCI  26
DERIDDER       FAIR      34  21  59 N8        30.59R WCI  27
OAKDALE        SUNNY     34  24  65 N8        30.57R WCI  28
OPELOUSAS      FAIR      33  21  60 N9        30.55R WCI  26
$$

ACROSS SOUTHWEST AND SOUTH CENTRAL LOUISIANA

CITY           SKY/WX    TMP DP  RH WIND       PRES   REMARKS
SULPHUR        CLOUDY    39  25  57 N15G22    30.57R
LAKE CHARLES   CLOUDY    38  25  59 N14G26    30.55R WCI  30
CHENNAULT INT  CLEAR     37  25  60 N15       30.55R WCI  28
CAMERON PHI      N/A     39  27  60 NE17G28   30.53R
DEQUINCY       FAIR      35  24  65 N6        30.57R WCI  30
JENNINGS       NOT AVBL
LAFAYETTE      MOCLDY    37  24  59 NE12      30.53R WCI  29
NEW IBERIA     CLOUDY    38  20  48 N16G23    30.53R WCI  29
ABBEVILLE      NOT AVBL
PATTERSON      CLOUDY   N/A N/A N/A NE14G23   30.50R
SALT POINT     NOT AVBL
$$

SELECTED SITES ACROSS THE REGION

CITY           SKY/WX    TMP DP  RH WIND       PRES   REMARKS
HOUSTON BUSH   CLOUDY    38  25  59 N12       30.58S
HOUSTON HOBBY  CLOUDY    39  25  57 N17       30.57R WCI  30
GALVESTON      CLOUDY    43  32  65 N22G29    30.55R
COLLEGE STAT   CLOUDY    33  20  58 N10       30.62R WCI  25
CONROE         CLOUDY    35  22  58 VRB5      30.60R
HUNTSVILLE     CLOUDY    31  22  69 N5        30.61R WCI  26
LUFKIN         CLEAR     29  22  75 CALM      30.61R
SHREVEPORT     CLEAR     29  19  66 NE7       30.64R WCI  22
MONROE         CLEAR     28  20  71 N8        30.65R WCI  20
NATCHEZ MS     CLEAR     30  16  55 N8        30.57R WCI  23
BATON ROUGE    PTCLDY    34  22  61 N9        30.54R WCI  27
N.O. INTL ARPT PTCLDY    40  29  64 N14G22    30.50R
SLIDELL        PTCLDY    36  26  67 N10       30.50R WCI  28
$$

MARINE REPORTS

STATION/POSITION TIME  SKY/WX   TEMP    WIND        PRES    VSBY
                                AIR SEA DIR/SP/G
                 (UTC)          (F)     (DEG/KT/KT) (MB)    (MI)
BUOY 30 S HIGH I 1150            45 65   10/ 23/ 29 1033.0R
WVE H/P(F/S)=  6/ 5

SEA RIM ST PARK  1200            40      20/ 18/ 23 1034.9R
PORT ARTHUR      1148               56   30/  8/ 15 1034.6R
SABINE PASS N    1148            40 57   20/ 18/ 22 1035.6R
TEXAS POINT      NOT AVBL
CALCASIEU PASS   1148            39 54   40/ 14/ 23   N/A
LK CHARLES BEACH 1148            37 54              1035.1R
MARSH ISLAND     1100            42                   N/A
FRESH WATER LOCK 1148            40 55   20/ 11/ 15 1033.6R
AMERADA PASS     1148            40 54  360/  6/ 11 1032.2R
$$




USA.gov is the U.S. government's official web portal to all federal, state and local government web resources and services.